Lid_Strength_Index
7 5 0 -0 0 0 1 1 1 1 -0 -1 -1 -1 -1 -1 -1 -1 -1 -2 -2 -2 -1 -1 -1 -1 -1 -2 -2 -1 -1 -1 -1 -2 -2 -2 -2 -2 -1 -2 -2 -1 -2
6 5 1 0 -0 -0 0 1 2 2 1 1 -1 -1 -1 -1 -1 -1 -1 -1 -2 -2 -1 -1 -1 -1 -1 -1 -1 -1 -1 -1 -1 -1 -1 -1 -2 -2 -1 -1 -2 -1 -2
6 5 3 1 -0 -0 -0 1 2 2 2 2 1 -0 -1 -1 -1 -1 -1 -1 -2 -2 -1 -1 -1 -1 -1 -1 -1 -1 -1 -2 -1 -1 -1 -1 -1 -2 -1 -1 -2 -2 -2
6 5 3 1 1 0 0 0 0 1 2 2 2 2 1 -0 -0 -1 -1 -1 -1 -2 -2 -1 -1 -1 -1 -1 -1 -1 -1 -1 -1 -1 -1 -1 -1 -2 -2 -1 -1 -2 -2
8 7 4 3 2 2 1 1 1 0 0 1 2 3 3 2 1 -0 -1 -1 -1 -1 -1 -2 -2 -1 -1 -1 -1 -1 -1 -1 -1 -1 -1 -1 -1 -1 -2 -2 -1 -2 -1
9 9 6 4 3 3 3 2 2 2 1 1 0 1 3 3 3 1 0 -1 -1 -1 -1 -1 -2 -1 -1 -1 -1 -1 -1 -1 -1 -1 -1 -1 -1 -2 -2 -2 -2 -1 -1
10 9 9 6 5 5 4 3 3 2 2 2 1 1 1 4 4 4 2 1 -0 -1 -1 -1 -1 -1 -1 -1 -1 -1 -1 -1 -1 -1 -1 -1 -1 -2 -2 -2 -1 -1 -1
10 10 10 8 7 6 5 5 4 4 3 3 3 2 2 2 4 5 5 3 2 0 -1 -1 -1 -1 -1 -1 -1 -0 -0 1 1 1 0 0 -1 -2 -2 -2 -2 -1 -1
11 11 11 11 10 9 8 7 6 5 5 5 5 4 4 4 3 5 5 6 4 2 1 -1 -1 -1 -1 -1 -1 0 1 1 0 1 1 1 -1 -2 -2 -2 -2 -2 -2
11 12 12 11 11 11 10 8 8 7 7 6 6 6 6 6 6 5 5 5 6 4 2 1 -0 -1 -1 -1 -0 1 1 2 0 1 1 1 -1 -2 -2 -3 -2 -2 -2
12 12 12 12 12 12 10 10 10 9 9 8 8 8 8 7 7 6 5 5 5 5 4 3 1 -0 0 1 1 1 2 -0 -0 1 1 1 -1 -2 -2 -2 -2 -2 -2
13 13 13 13 12 12 11 11 11 11 10 10 10 9 9 8 7 7 6 5 4 5 4 3 2 0 1 -0 -1 1 0 -0 0 0 0 1 -1 -2 -2 -2 -2 -2 -2
13 13 13 13 13 12 12 11 12 11 11 10 10 10 9 9 8 8 7 6 5 4 4 3 3 1 -1 -1 -1 -1 -0 -0 -0 0 0 1 -1 -2 -2 -2 -2 -2 -2
14 14 14 13 13 13 13 12 12 12 11 11 11 10 10 9 9 9 8 8 6 5 4 3 2 4 2 -1 -1 -0 -0 -0 -0 -0 0 2 -0 -2 -2 -2 -2 -2 -2
14 14 14 13 13 13 13 13 13 12 12 11 11 11 10 10 9 8 8 8 7 6 5 4 4 4 3 2 -0 -0 -0 -0 -0 0 0 4 2 -1 -2 -2 -2 -2 -2
14 14 14 14 13 14 14 13 13 13 12 11 11 11 11 10 9 9 8 8 7 6 5 4 4 3 3 3 1 -0 0 -0 -0 1 1 2 2 1 -1 -1 -2 -2 -2
15 14 14 14 14 14 14 14 13 13 12 12 12 11 10 10 9 9 9 8 8 7 6 5 4 3 2 1 2 0 0 0 0 1 1 1 2 3 1 -1 -1 -1 -2
15 15 15 14 14 14 14 14 13 13 12 12 11 10 10 9 9 8 9 9 7 7 6 6 5 4 3 0 1 1 0 0 0 1 1 2 2 2 2 1 -1 -1 -1
15 15 15 15 14 14 14 13 13 12 12 11 11 11 10 9 9 9 9 8 8 7 6 5 4 4 3 1 1 3 5 7 4 1 1 2 2 2 1 3 2 1 0
16 15 15 15 14 14 13 13 13 13 12 12 12 11 10 10 9 9 8 8 7 7 7 5 4 3 2 1 3 6 8 8 9 9 5 2 2 3 4 5 4 4 2
16 16 15 15 14 14 15 15 15 14 13 13 12 11 10 10 9 8 7 6 6 6 6 5 4 4 3 1 4 6 7 9 11 12 12 10 9 8 9 9 8 6 5
16 16 16 15 15 15 15 15 14 14 13 13 12 11 11 9 8 8 8 7 5 6 6 6 5 4 3 1 3 3 6 7 9 12 13 13 13 11 12 13 12 11 10
17 17 16 16 16 16 15 15 14 14 13 13 13 12 11 10 9 9 8 6 6 6 6 5 4 4 4 1 1 3 6 7 9 11 12 13 14 14 13 14 14 14 12
17 16 17 16 16 16 15 16 15 15 15 14 13 12 11 11 10 9 8 7 7 6 6 5 4 3 2 3 2 1 3 5 7 11 12 14 14 15 15 15 15 15 15
17 17 18 17 17 16 16 15 15 15 15 14 14 13 12 11 10 9 8 8 8 7 7 6 5 5 3 3 2 2 4 5 5 7 11 14 14 14 15 15 16 16 16
18 18 18 17 16 16 16 15 16 16 16 15 15 14 12 11 10 9 8 8 8 8 8 8 7 6 5 4 2 2 4 4 5 7 10 12 12 15 16 15 16 15 16